Flag for Peru Weather past 2 weeks in Arequipa, Arequipa, Peru

Now
63 °F

Scattered clouds.


Feels Like: 63 °F
Forecast: 54 / 71 °F
Wind: 5 mph from Southwest

Location: Arequipa Airport

Current Time: Oct 21, 2014 at 9:18:07 AM

Latest Report: Oct 21, 2014 at 9:00 AM


Visibility: N/A

Pressure: 30.33 "Hg

Humidity: 37%

Dew point: 36 °F

Location of ArequipaLocation

Historic Weather in Arequipa — Graph

°F

Arequipa temperature yesterday

Maximum temperature yesterday: 68 °F (at 10:00 AM)
Minimum temperature yesterday: 52 °F (at 2:00 AM)
Average temperature yesterday: 59 °F

Past Weeks' High & Low Weather Summary

 TemperatureHumidityPressure
High77 °F (Oct 15, 10:00 AM)72% (Oct 10, 11:00 PM)30.39 "Hg (Oct 10, 11:00 PM)
Low48 °F (Oct 10, 4:00 AM)14% (Oct 15, 10:00 AM)30.21 "Hg (Oct 8, 2:00 PM)
Average61 °F36%30.30 "Hg
* Reported Oct 6 8:00 AM — Oct 21 8:00 AM, Arequipa, Weather by CustomWeather, © 2014

Note: Actual official high and low records may vary slightly from our data, if they occured in-between our weather recording intervals... More about our weather records

Advertising

Arequipa weather history for previous 24 hours

 ConditionsComfort  
Time TempWeatherWind HumidityBarometerVisibility
8:00 AM
Oct 21
61 °FScattered clouds.5 mph39%30.33 "HgN/A
7:00 AM59 °FScattered clouds.2 mph39%30.33 "HgN/A
6:00 AM55 °FScattered clouds.2 mph47%30.30 "HgN/A
5:00 AM54 °FPassing clouds.2 mph51%30.30 "HgN/A
4:00 AM54 °FClear.3 mph51%30.27 "Hg10 mi
3:00 AM52 °FClear.3 mph50%30.27 "Hg10 mi
2:00 AM52 °FPassing clouds.6 mph50%30.30 "HgN/A
1:00 AM52 °FPassing clouds.2 mph54%30.33 "HgN/A
12:00 AM57 °FPassing clouds.1 mph48%30.33 "HgN/A
11:00 PM
Oct 20
55 °FPassing clouds.2 mph47%30.36 "HgN/A
10:00 PM55 °FPassing clouds.2 mph55%30.36 "HgN/A
9:00 PM57 °FPassing clouds.5 mph51%30.33 "HgN/A
8:00 PM57 °FPassing clouds.5 mph51%30.33 "HgN/A
7:00 PM57 °FPassing clouds.No wind51%30.30 "HgN/A
6:00 PM59 °FPassing clouds.8 mph39%30.27 "HgN/A
5:00 PM61 °FPartly sunny.9 mph36%30.27 "HgN/A
4:00 PM63 °FPartly sunny.13 mph34%30.24 "HgN/A
3:00 PM66 °FPartly sunny.10 mph28%30.24 "HgN/A
2:00 PM68 °FPartly sunny.14 mph24%30.27 "HgN/A
1:00 PM66 °FPartly sunny.10 mph24%30.27 "HgN/A
12:00 PM64 °FScattered clouds.12 mph26%30.30 "HgN/A
11:00 AM66 °FPartly sunny.12 mph24%30.30 "HgN/A
10:00 AM68 °FScattered clouds.9 mph21%30.30 "HgN/A
9:00 AM66 °FPassing clouds.7 mph22%30.30 "HgN/A
Weather by CustomWeather, © 2014

See weather overviewHow to use our weather pages